Flag Weather past 2 weeks in Stavern, Norway

Now
43 °F

Overcast.


Feels Like: 41 °F
Forecast: 43 / 52 °F
Wind: 3 mph from South

Location: Torp

Current Time: Oct 31, 2014 at 12:18:55 AM

Latest Report: Oct 30, 2014 at 11:50 PM


Visibility: N/A

Pressure: 30.24 "Hg

Humidity: 76%

Dew point: 36 °F

Location of StavernLocation

Historic Weather in Stavern — Graph

°F

Stavern temperature yesterday

Maximum temperature yesterday: 50 °F (at 1:20 PM)
Minimum temperature yesterday: 36 °F (at 1:20 AM)
Average temperature yesterday: 41 °F

Past Weeks' High & Low Weather Summary

 TemperatureHumidityPressure
High59 °F (Oct 20, 1:20 PM)100% (Oct 16, 7:50 AM)30.24 "Hg (Oct 16, 7:50 AM)
Low32 °F (Oct 16, 8:50 PM)47% (Oct 30, 1:20 PM)29.30 "Hg (Oct 20, 3:50 AM)
Average48 °F91%29.79 "Hg
* Reported Oct 15 11:20 PM — Oct 30 10:51 PM, Stavern, Weather by CustomWeather, © 2014

Note: Actual official high and low records may vary slightly from our data, if they occured in-between our weather recording intervals... More about our weather records

Advertising

Stavern weather history for previous 24 hours

 ConditionsComfort  
Time TempWeatherWind HumidityBarometerVisibility
10:51 PM
Oct 30
43 °FDrizzle. Overcast.10 mph76%30.24 "HgN/A
10:20 PM43 °FClear.5 mph71%30.24 "HgN/A
9:50 PM41 °FPassing clouds.5 mph81%30.24 "HgN/A
9:20 PM41 °FPassing clouds.3 mph81%30.24 "HgN/A
8:50 PM41 °FClear.5 mph76%30.24 "Hg10 mi
8:20 PM41 °FClear.No wind76%30.21 "Hg10 mi
7:50 PM41 °FClear.1 mph76%30.21 "Hg10 mi
7:20 PM41 °FClear.2 mph76%30.21 "Hg10 mi
6:50 PM41 °FClear.1 mph76%30.21 "Hg10 mi
6:20 PM41 °FClear.2 mph76%30.21 "Hg10 mi
5:50 PM41 °FClear.No wind76%30.21 "Hg10 mi
5:20 PM41 °FClear.1 mph70%30.21 "Hg10 mi
4:50 PM43 °FClear.1 mph66%30.21 "Hg10 mi
4:20 PM45 °FSunny.5 mph61%30.21 "Hg10 mi
3:50 PM46 °FSunny.5 mph57%30.21 "Hg10 mi
3:20 PM46 °FSunny.3 mph57%30.21 "Hg10 mi
2:50 PM48 °FSunny.2 mph54%30.21 "Hg10 mi
2:20 PM48 °FPassing clouds.3 mph58%30.18 "HgN/A
1:50 PM50 °FSunny.1 mph50%30.18 "Hg10 mi
1:20 PM50 °FSunny.2 mph47%30.18 "Hg10 mi
12:50 PM48 °FSunny.2 mph50%30.18 "Hg10 mi
12:20 PM46 °FSunny.3 mph53%30.18 "Hg10 mi
11:50 AM46 °FPassing clouds.5 mph62%30.18 "HgN/A
11:20 AM48 °FSunny.6 mph62%30.18 "Hg10 mi
10:50 AM43 °FSunny.3 mph81%30.18 "Hg10 mi
10:20 AM41 °FSunny.2 mph81%30.18 "Hg10 mi
9:50 AM41 °FPassing clouds.3 mph66%30.18 "HgN/A
9:20 AM41 °FPassing clouds.3 mph66%30.18 "HgN/A
8:50 AM41 °FSunny.2 mph66%30.15 "Hg10 mi
8:20 AM39 °FSunny.3 mph65%30.15 "Hg10 mi
7:50 AM36 °FSunny.1 mph81%30.12 "Hg10 mi
7:20 AM36 °FPassing clouds.3 mph75%30.12 "HgN/A
6:50 AM37 °FClear.2 mph70%30.12 "Hg10 mi
6:20 AM36 °FClear.5 mph81%30.12 "Hg10 mi
5:50 AM37 °FClear.5 mph70%30.09 "Hg10 mi
5:20 AM37 °FChilly.7 mph70%30.09 "HgN/A
4:50 AM37 °FChilly.6 mph75%30.09 "HgN/A
4:20 AM37 °FChilly.6 mph75%30.09 "HgN/A
3:50 AM37 °FChilly.7 mph75%30.09 "HgN/A
3:20 AM37 °FChilly.8 mph75%30.09 "HgN/A
2:50 AM36 °FChilly.6 mph81%30.09 "HgN/A
2:20 AM36 °FChilly.3 mph87%30.09 "HgN/A
1:50 AM36 °FChilly.6 mph87%30.09 "HgN/A
1:20 AM36 °FChilly.5 mph87%30.07 "HgN/A
12:50 AM37 °FChilly.5 mph81%30.07 "HgN/A
12:20 AM37 °FChilly.6 mph81%30.07 "HgN/A
Weather by CustomWeather, © 2014

See weather overviewHow to use our weather pages